www.pogodaiklimat.ru

Погода и климат >> Архив погоды >> Индия >> Keongjhargarh


ПОГОДА в Keongjhargarh

  • Прогноз погоды в Keongjhargarh
  • Монитор погоды в Keongjhargarh
  • Климат города

АРХИВ ПОГОДЫ в Keongjhargarh

Время (UTC), дата Ветер
(напр.,м/с)
 
Видим.   Явления Облачность Т
(С)
Тd
(С)
f
(%)
Тe
(С)
Тes
(С)
Комфортность P
(гПа)
Po
(гПа)
Тmin
(С)
Tmax
(С)
R
(мм)
R24
(мм)
S
(см)
03 18.04 штиль 0 4000 м ясно +28.8 +19.6 58 +35 +48 очень
душно
1009.5 1010.0 +23.0 0.8
06 18.04 штиль 0 4000 м ясно +36.0 +19.4 38 +41 +70 опасность
перегрева
1007.4 1007.0
09 18.04 штиль 0 4000 м 4/4 600 м
[Sc diur, vesp]
+37.0 +18.8 35 +42 +52 опасность
перегрева
1004.1 1004.0
12 18.04 СВ 1 4000 м 5/4 600 м
[Sc diur, vesp Ci sp]
+31.4 +21.3 55 +39 +40 очень
душно
1003.9 1004.0 +37.1
03 19.04 штиль 0 4000 м ясно +27.4 +23.4 79 +37 +51 опасность
солнечного
удара
1007.6 1008.0 +23.5
06 19.04 штиль 0 4000 м ясно +35.2 +17.6 35 +39 +68 опасность
солнечного
удара
1005.7 1006.0
09 19.04 Ю 1 4000 м 5/3
[Sc diur, vesp As trans]
+32.6 +17.5 41 +37 +45 очень
душно
1004.2 1004.0
12 19.04 штиль 0 4000 м 5/4 600 м
[Sc diur, vesp Ci sp]
+31.0 +19.2 49 +36 +37 очень
душно
1003.6 1004.0 +36.3
03 20.04 штиль 0 4000 м ясно +28.8 +21.9 66 +37 +51 опасность
солнечного
удара
1006.6 1007.0 +22.8
06 20.04 ЮВ 1 4000 м 3/3 600 м
[Sc]
+36.0 +21.5 43 +44 +61 опасность
перегрева
1005.3 1005.0
09 20.04 штиль 0 4000 м 5/5 600 м
[Sc diur, vesp]
+37.8 +18.0 31 +41 +50 опасность
перегрева
1002.8 1003.0
12 20.04 ЮВ 1 4000 м 8/5 600 м
[Sc diur, vesp Ci sp]
+34.0 +22.1 50 +43 +43 опасность
перегрева
1003.1 1003.0 +38.2
03 21.04 С 2 4000 м 4/0
[Ac trans Ci sp]
+32.4 +16.1 38 +35 +45 душно 1005.2 1005.0 +26.5
06 21.04 Ю 1 4000 м ясно +36.8 +17.5 32 +40 +65 опасность
солнечного
удара
1004.5 1005.0
09 21.04 ЮЗ 1 4000 м 3/3 600 м
[Sc diur, vesp]
+38.6 +17.6 29 +41 +52 опасность
перегрева
1001.5 1002.0
12 21.04 штиль 0 4000 м 4/3 600 м
[Sc diur, vesp Ci sp]
+36.6 +17.9 33 +40 +41 очень
душно
1001.0 1001.0 +39.0
03 22.04 штиль 0 4000 м ясно +28.0 +24.7 82 +40 +53 опасность
солнечного
удара
1008.4 1008.0 +25.0
06 22.04 СЗ 1 4000 м 1/1 600 м
[Sc]
+34.2 +23.9 55 +46 +69 опасность
перегрева
1007.0 1007.0
09 22.04 В 1 4000 м 5/1 600 м
[Sc diur, vesp Ac trans Ci sp]
+35.4 +23.4 50 +46 +58 опасность
перегрева
1004.0 1004.0
12 22.04 Ю 2 4000 м 10/6 600 м
[Cb cap As trans]
+32.2 +21.6 54 +41 +41 опасность
перегрева
1003.9 1004.0 +36.0
03 23.04 штиль 0 4000 м ясно +28.4 +20.2 61 +35 +48 очень
душно
1009.5 1010.0 +22.9
06 23.04 штиль 0 4000 м ясно +33.4 +20.4 47 +40 +70 опасность
солнечного
удара
1008.1 1008.0
09 23.04 штиль 0 4000 м в посл. час гроза {дождь} 3/3 600 м
[Sc]
+27.8 +19.8 62 +34 +46 очень
душно
1006.4 1006.0 15
12 23.04 штиль 0 4000 м в посл. час гроза {дождь} 8/5 600 м
[St As trans]
+26.8 +19.3 63 +32 +32 очень
душно
1006.2 1006.0 +35.0 15
03 24.04 штиль 0 4000 м ясно +26.8 +21.0 71 +34 +48 очень
душно
1010.5 1011.0 +20.5 15
06 24.04 штиль 0 4000 м ясно +33.8 +18.7 41 +39 +68 опасность
солнечного
удара
1008.1 1008.0
09 24.04 штиль 0 4000 м 6/5 600 м
[Sc diur, vesp As trans]
+35.8 +17.2 33 +39 +47 очень
душно
1004.9 1005.0
12 24.04 штиль 0 4000 м 5/3 600 м
[Sc diur, vesp Ac trans Ci sp]
+32.8 +18.9 44 +38 +38 очень
душно
1004.8 1005.0 +36.0

 

Местоположение метеостанции Keongjhargarh (Orissa, Индия): широта 21.62 долгота 85.52 высота над уровнем моря 463 м.

В архиве по умолчанию представлена погода в Keongjhargarh за последнюю неделю. Архивные данные за месяц целиком и за предыдущие месяцы, начиная с января 2011 года, Вы можете получить, выбрав интересующий диапазон дат из раскрывающегося списка и нажав кнопку "Ввод!".


*Определитесь, кто Вы:
робот инопланетянин человек

Внимание! Время в таблицах - всемирное. Для получения местного времени необходимо прибавить поправку, которая в Keongjhargarh равна 5.5 ч.

Смотрите также архив погоды в соседних городах и на ближайших метеорологических станциях:

Погода в Angul (Orissa, Индия) (98 км)
Погода в Chaibasa (Jharkhand, Индия) (108 км)
Погода в Baripada (Orissa, Индия) (134 км)
Погода в Cuttack (Orissa, Индия) (135 км)
Погода в Balasore (Orissa, Индия) (146 км)
Погода в Jamshedpur (Jharkhand, Индия) (150 км)
Погода в Jharsuguda (Orissa, Индия) (152 км)
Погода в Bhubaneswar (Orissa, Индия) (156 км)
Погода в Chandbali (Orissa, Индия) (156 км)
Погода в Sambalpur (Orissa, Индия) (161 км)

Пояснения к столбцам:

Ветер - указаны скорость ветра в м/с - средняя за 10 мин, порывы в срок и между сроками (в фигурных скобках) и направление, откуда дует ветер: С - северный, СВ - северо-восточный, В - восточный, ЮВ - юго-восточный, Ю - южный, ЮЗ - юго-западный, З - западный, СЗ - северо-западный.
Видимость - горизонтальная дальность видимости в метрах или километрах. При видимости от 1 до 10 км при отсутствии осадков обычно наблюдается дымка, при ухудшении видимости до 1 км и менее - туман. В сухую погоду видимость может ухудшаться дымом, пылью или мглою.
Явления - указаны атмосферные явления, наблюдавшиеся в срок или в последний час перед сроком; фигурными скобками обозначены явления, наблюдавшиеся между сроками (за 1-3 часа до срока); квадратными скобками обозначены град или гололедные отложения с указанием их диаметра в мм.
Облачность - указаны через наклонную черту общая и нижняя облачность в баллах и высота нижней границы облаков в метрах; квадратными скобками обозначены формы облаков: Ci - перистые, Cs - перисто-слоистые, Cc - перисто-кучевые, Ac - высококучевые, As - высокослоистые, Sc - слоисто-кучевые, Ns - слоисто-дождевые, Cu - кучевые, Cb - кучево-дождевые. Подробнее классификацию облаков см. в Атласе облаков (PDF).
T - Температура воздуха - температура, измеренная на высоте 2 м над землей.
Td - Температура точки росы - температура, при понижении до которой содержащийся в воздухе водяной пар достигнет насыщения.
f - Относительная влажность воздуха - влажноcть воздуха, измеренная на высоте 2 м над землей.
Te - Эффективная температура - температура, которую ощущает одетый по сезону человек в тени. Характеристика душности погоды. При расчете учитывается влияние влажности воздуха и скорости ветра на теплоощущения человека.
Tes - Эффективная температура на солнце - температура, которую ощущает человек, с поправкой на солнечный нагрев. Характеристика знойности погоды. Зависит от высоты солнца над горизонтом, облачности и скорости ветра. Ночью, в пасмурную погоду, а также при ветре 12 м/с и более поправка равна нулю.
P - Атмосферное давление - приведенное к уровню моря атмосферное давление.
Po - Атмосферное давление - измеренное на уровне метеостанции атмосферное давление.
Tmin - Минимальная температура - минимум температуры воздуха на высоте 2 м над землей.
Tmax - Максимальная температура - максимум температуры воздуха на высоте 2 м над землей.
R - Количество осадков - Количество выпавших осадков за период времени, мм. При наведении курсора мыши на число - период времени, за который выпало указанное количество осадков.
R24 - Количество осадков - Количество выпавших осадков за 24 часа, мм.
S - Снежный покров - Высота снежного покрова, см. При наведении курсора мыши на число - состояние снежного покрова и степень покрытия местности в баллах.